Location: *
(45.9500°N, 9.0833°E)
Time: 11:12:59
(UTC+00:00)

Vanguard 2 - Visible Passes

Search period start: 13 June 2021 00:00
Search period end: 23 June 2021 00:00
Orbit: 552 x 2937 km, 32.9° (Epoch: 13 June)

Date Brightness Start Highest point End Pass type
(mag) Time Alt. Az. Time Alt. Az. Time Alt. Az.
13 Jun 9.1 20:15:00 10° SW 20:20:29 23° S 20:23:57 12° SE visible
13 Jun 9.7 22:25:10 10° SW 22:25:22 10° SW 22:25:22 10° SW visible
14 Jun 8.9 20:32:24 10° WSW 20:37:57 23° S 20:40:49 16° SSE visible
15 Jun 8.9 20:49:58 10° WSW 20:55:24 23° SSW 20:57:37 18° SSE visible
16 Jun 9.0 21:07:42 10° WSW 21:12:48 21° SSW 21:14:23 19° S visible
17 Jun 9.2 21:25:37 10° WSW 21:30:07 18° SSW 21:31:07 17° S visible
18 Jun 9.4 21:43:49 10° WSW 21:47:22 15° SSW 21:47:49 15° SSW visible
19 Jun 9.4 19:49:32 10° WSW 19:57:25 29° SSW 20:02:42 10° SE visible
19 Jun 9.8 22:02:47 10° SW 22:04:31 11° SW 22:04:31 11° SW visible
20 Jun 9.5 20:07:19 10° WSW 20:14:47 27° SSW 20:19:47 11° SE visible
21 Jun 9.6 20:25:14 10° WSW 20:32:04 23° SSW 20:36:27 12° SSE visible
22 Jun 9.7 20:43:23 10° WSW 20:49:16 19° SSW 20:53:06 12° S visible
